{"data":{"norad_id":47742,"epoch":"2026-05-24T20:46:14.117952Z","epoch_age_seconds":96786,"freshness":"FRESH","line1":"1 47742U 21017W   26144.86544118  .00008706  00000+0  29172-3 0  9993","line2":"2 47742  53.1590 199.8627 0001550  68.3414 291.7752 15.31730599289700","mean_motion":15.31730599,"eccentricity":0.000155,"inclination_deg":53.159,"raan_deg":199.8627,"arg_perigee_deg":68.3414,"mean_anomaly_deg":291.7752,"bstar":0.00029172,"rev_number":28970,"period_min":94.01130988309,"perigee_km":469.58722092104,"apogee_km":471.71034451368,"semimajor_km":6848.7857827174,"source":"CELESTRAK","updated_at":"2026-05-25T13:38:16.566284Z"}}